Weather History for Flag Island, MN

Change the Weather History Date:

Thursday, November 8, 2012

  Actual Average Record
Temperature  
Mean Temperature 34 °F -  
Max Temperature 39 °F 32 °F 53 °F (2010)
Min Temperature 28 °F 24 °F 3 °F (2003)
Degree Days  
Heating Degree Days 32    
Moisture  
Dew Point 32 °F    
Average Humidity 84    
Maximum Humidity 93    
Minimum Humidity 75    
Precipitation  
Precipitation 0.05 in - - ()
Sea Level Pressure  
Sea Level Pressure 29.92 in    
Wind  
Wind Speed 17 mph (NW)    
Max Wind Speed 25 mph    
Max Gust Speed 30 mph    
Visibility 10 miles    
Events Rain    
Averages and records for this station are not official NWS values.
T = Trace of Precipitation, MM = Missing Value Source: NWS Daily Summary

Daily Weather History Graph

Daily Weather History Graph

Search for Another Location

Airport:

Trip Planner

Search our weather history database for the weather conditions in past years. The results will help you decide how hot, cold, wet, or windy it might be!

Date:

Astronomy

Nov. 08, 2012 Rise Set
Actual Time 7:19 AM CST 4:46 PM CST
Civil Twilight 6:45 AM CST 5:20 PM CST
Nautical Twilight 6:07 AM CST 5:58 PM CST
Astronomical Twilight 5:30 AM CST 6:35 PM CST
Moon 12:45 AM CST (11/8) 1:55 PM CST (11/8)
Length of Visible Light 10h 34m
Length of Day
9h 26m
Waning Crescent, 32% of the Moon is Illuminated
Nov 8
Waning Crescent
Nov 13
New
Nov 20
First Quarter
Nov 28
Full
Dec 6
Last Quarter

Hourly Weather History & Observations

Time (CST) Temp. Windchill Dew Point Humidity Pressure Visibility Wind Dir Wind Speed Gust Speed Precip Events Conditions
12:14 AM 37.4 °F 28.2 °F 33.8 °F 87% 29.82 in 10.0 mi SE 16.1 mph - N/A   Overcast
12:33 AM 37.4 °F 26.9 °F 33.8 °F 87% 29.80 in 10.0 mi SSE 20.7 mph 24.2 mph N/A   Overcast
12:53 AM 39.2 °F 29.6 °F 33.8 °F 81% 29.79 in 10.0 mi SSE 19.6 mph 27.6 mph N/A   Overcast
1:14 AM 37.4 °F 27.5 °F 33.8 °F 87% 29.78 in 10.0 mi SSE 18.4 mph 24.2 mph N/A   Overcast
1:33 AM 39.2 °F 29.8 °F 33.8 °F 81% 29.78 in 10.0 mi SSE 18.4 mph - N/A   Overcast
1:53 AM 37.4 °F 27.5 °F 33.8 °F 87% 29.77 in 10.0 mi SSE 18.4 mph - N/A Rain Light Rain
2:13 AM 39.2 °F 29.3 °F 33.8 °F 81% 29.77 in 10.0 mi SSE 20.7 mph - N/A   Mostly Cloudy
2:33 AM 37.4 °F 26.6 °F 33.8 °F 87% 29.76 in 10.0 mi SSE 21.9 mph - N/A   Mostly Cloudy
2:54 AM 37.4 °F 26.4 °F 33.8 °F 87% 29.73 in 10.0 mi SSE 23.0 mph - N/A   Scattered Clouds
3:13 AM 37.4 °F 25.9 °F 33.8 °F 87% 29.72 in 10.0 mi SSE 25.3 mph - N/A   Mostly Cloudy
3:33 AM 37.4 °F 26.6 °F 35.6 °F 93% 29.70 in 10.0 mi SSE 21.9 mph - N/A   Scattered Clouds
3:54 AM 39.2 °F 30.8 °F 35.6 °F 87% 29.74 in 10.0 mi South 15.0 mph - N/A   Clear
4:13 AM 39.2 °F 30.2 °F 35.6 °F 87% 29.73 in 10.0 mi South 17.3 mph - N/A   Clear
4:33 AM 39.2 °F 30.8 °F 35.6 °F 87% 29.73 in 10.0 mi South 15.0 mph - N/A   Mostly Cloudy
4:54 AM 37.4 °F 28.5 °F 35.6 °F 93% 29.72 in 10.0 mi South 15.0 mph - N/A   Overcast
5:13 AM 39.2 °F 31.2 °F 35.6 °F 87% 29.70 in 10.0 mi SSE 13.8 mph - N/A Rain Light Rain
5:33 AM 39.2 °F 33.6 °F 35.6 °F 87% 29.72 in 10.0 mi South 8.1 mph - 0.03 in Rain Rain
5:53 AM 39.2 °F 33.6 °F 35.6 °F 87% 29.73 in 10.0 mi South 8.1 mph - 0.05 in Rain Light Rain
6:13 AM 39.2 °F 32.5 °F 35.6 °F 87% 29.71 in 10.0 mi South 10.4 mph - N/A   Mostly Cloudy
6:33 AM 39.2 °F 33.6 °F 35.6 °F 87% 29.73 in 10.0 mi South 8.1 mph - N/A   Scattered Clouds
6:53 AM 39.2 °F 33.6 °F 35.6 °F 87% 29.74 in 10.0 mi South 8.1 mph - N/A   Mostly Cloudy
7:13 AM 39.2 °F 32.5 °F 35.6 °F 87% 29.74 in 10.0 mi SSW 10.4 mph - N/A   Overcast
7:33 AM 39.2 °F 33.0 °F 35.6 °F 87% 29.75 in 10.0 mi SW 9.2 mph - N/A   Overcast
7:53 AM 39.2 °F 32.0 °F 35.6 °F 87% 29.76 in 10.0 mi SW 11.5 mph - N/A   Overcast
8:14 AM 39.2 °F 33.0 °F 35.6 °F 87% 29.76 in 10.0 mi SW 9.2 mph - N/A   Overcast
8:33 AM 39.2 °F 33.0 °F 35.6 °F 87% 29.78 in 10.0 mi WSW 9.2 mph - N/A   Overcast
8:54 AM 39.2 °F 33.0 °F 35.6 °F 87% 29.78 in 10.0 mi WSW 9.2 mph - N/A   Overcast
9:13 AM 39.2 °F 33.0 °F 35.6 °F 87% 29.79 in 10.0 mi West 9.2 mph - N/A   Overcast
9:33 AM 39.2 °F 31.6 °F 35.6 °F 87% 29.80 in 7.0 mi West 12.7 mph - N/A   Overcast
9:54 AM 39.2 °F 30.8 °F 35.6 °F 87% 29.81 in 10.0 mi WNW 15.0 mph - N/A   Overcast
10:13 AM 39.2 °F 30.5 °F 35.6 °F 87% 29.83 in 7.0 mi NW 16.1 mph - N/A   Overcast
10:33 AM 37.4 °F 26.9 °F 35.6 °F 93% 29.84 in 7.0 mi NW 20.7 mph - N/A   Overcast
10:54 AM 37.4 °F 26.4 °F 35.6 °F 93% 29.86 in 10.0 mi NW 23.0 mph - N/A   Overcast
11:13 AM 37.4 °F 26.6 °F 35.6 °F 93% 29.87 in 7.0 mi NNW 21.9 mph 27.6 mph N/A   Overcast
11:33 AM 37.4 °F 27.8 °F 35.6 °F 93% 29.88 in 10.0 mi NNW 17.3 mph - N/A   Overcast
11:54 AM 37.4 °F 28.2 °F 35.6 °F 93% 29.89 in 10.0 mi NNW 16.1 mph - N/A   Overcast
12:13 PM 37.4 °F 27.5 °F 33.8 °F 87% 29.90 in 10.0 mi NNW 18.4 mph - N/A   Overcast
12:33 PM 37.4 °F 26.1 °F 33.8 °F 87% 29.91 in 10.0 mi NNW 24.2 mph 27.6 mph N/A   Overcast
12:54 PM 37.4 °F 25.9 °F 33.8 °F 87% 29.93 in 10.0 mi NNW 25.3 mph 29.9 mph N/A   Overcast
1:13 PM 37.4 °F 26.1 °F 32.0 °F 81% 29.94 in 10.0 mi NNW 24.2 mph - N/A   Overcast
1:33 PM 37.4 °F 26.6 °F 32.0 °F 81% 29.95 in 10.0 mi NNW 21.9 mph - N/A   Overcast
1:53 PM 37.4 °F 26.4 °F 30.2 °F 75% 29.95 in 10.0 mi North 23.0 mph - N/A   Overcast
2:14 PM 37.4 °F 26.9 °F 30.2 °F 75% 29.96 in 10.0 mi North 20.7 mph 26.5 mph N/A   Overcast
2:33 PM 37.4 °F 26.4 °F 30.2 °F 75% 29.97 in 10.0 mi North 23.0 mph - N/A   Mostly Cloudy
2:54 PM 37.4 °F 28.2 °F 30.2 °F 75% 29.99 in 10.0 mi NNW 16.1 mph 24.2 mph N/A   Mostly Cloudy
3:13 PM 37.4 °F 27.2 °F 30.2 °F 75% 30.00 in 10.0 mi NNW 19.6 mph 24.2 mph N/A   Overcast
3:33 PM 37.4 °F 27.5 °F 30.2 °F 75% 30.01 in 10.0 mi NNW 18.4 mph - N/A   Overcast
3:54 PM 37.4 °F 27.2 °F 30.2 °F 75% 30.02 in 10.0 mi North 19.6 mph 24.2 mph N/A   Mostly Cloudy
4:13 PM 35.6 °F 25.5 °F 30.2 °F 81% 30.04 in 10.0 mi North 17.3 mph - N/A   Mostly Cloudy
4:33 PM 35.6 °F 25.2 °F 30.2 °F 81% 30.05 in 10.0 mi NNW 18.4 mph - N/A   Mostly Cloudy
4:54 PM 35.6 °F 26.2 °F 30.2 °F 81% 30.06 in 10.0 mi NNW 15.0 mph - N/A   Overcast
5:13 PM 35.6 °F 25.9 °F 30.2 °F 81% 30.07 in 10.0 mi NNW 16.1 mph - N/A   Mostly Cloudy
5:33 PM 33.8 °F 23.9 °F 30.2 °F 87% 30.08 in 10.0 mi NNW 15.0 mph 20.7 mph N/A   Mostly Cloudy
5:54 PM 33.8 °F 22.8 °F 30.2 °F 87% 30.08 in 10.0 mi North 18.4 mph - N/A   Overcast
6:13 PM 33.8 °F 22.2 °F 30.2 °F 87% 30.09 in 7.0 mi NNW 20.7 mph - N/A   Mostly Cloudy
6:33 PM 33.8 °F 23.2 °F 28.4 °F 81% 30.10 in 10.0 mi NNW 17.3 mph - N/A   Mostly Cloudy
6:54 PM 33.8 °F 23.5 °F 28.4 °F 81% 30.10 in 10.0 mi NNW 16.1 mph - N/A   Overcast
7:13 PM 33.8 °F 22.2 °F 26.6 °F 75% 30.11 in 10.0 mi North 20.7 mph 24.2 mph N/A   Overcast
7:33 PM 32.0 °F 21.6 °F 26.6 °F 80% 30.11 in 10.0 mi North 15.0 mph - N/A   Overcast
7:54 PM 32.0 °F 20.1 °F 26.6 °F 80% 30.11 in 10.0 mi North 19.6 mph 23.0 mph N/A   Overcast
8:13 PM 30.2 °F 18.9 °F 24.8 °F 80% 30.12 in 10.0 mi North 16.1 mph - N/A   Overcast
8:33 PM 30.2 °F 18.9 °F 26.6 °F 86% 30.12 in 10.0 mi North 16.1 mph - N/A   Overcast
8:54 PM 30.2 °F 18.9 °F 24.8 °F 80% 30.13 in 10.0 mi North 16.1 mph - N/A   Overcast
9:13 PM 30.2 °F 18.9 °F 24.8 °F 80% 30.14 in 10.0 mi North 16.1 mph 20.7 mph N/A   Mostly Cloudy
9:33 PM 30.2 °F 18.1 °F 24.8 °F 80% 30.14 in 10.0 mi North 18.4 mph - N/A   Overcast
9:53 PM 30.2 °F 18.9 °F 23.0 °F 75% 30.15 in 10.0 mi North 16.1 mph 21.9 mph N/A   Mostly Cloudy
10:13 PM 30.2 °F 18.9 °F 24.8 °F 80% 30.16 in 10.0 mi North 16.1 mph - N/A   Overcast
10:34 PM 30.2 °F 18.9 °F 24.8 °F 80% 30.16 in 10.0 mi North 16.1 mph - N/A   Overcast
10:53 PM 30.2 °F 19.8 °F 23.0 °F 75% 30.17 in 10.0 mi North 13.8 mph 20.7 mph N/A   Overcast
11:13 PM 30.2 °F 18.9 °F 24.8 °F 80% 30.18 in 10.0 mi North 16.1 mph 21.9 mph N/A   Overcast
11:33 PM 28.4 °F 18.0 °F 24.8 °F 86% 30.18 in 10.0 mi North 12.7 mph 20.7 mph N/A   Overcast
11:53 PM 28.4 °F 17.5 °F 24.8 °F 86% 30.19 in 10.0 mi North 13.8 mph 18.4 mph N/A   Overcast